sat.trackr.live / text

‹ back to catalog

STARLINK-30287

NORAD 57709 · 2023-129M

PAYLOAD ACTIVE UNKNOWN

§ Identity

Operator
Country
US
Launch date
2023-08-27
Launch site
AFETR
Launch vehicle
Mass (kg)
RCS (m²)

Purposes: comms

External: N2YO · Heavens-Above · Gunter

§ Orbital elements

Epoch: 2026-05-24T23:42:42.812064Z

Period
94.27 min
Inclination
43.0077°
Eccentricity
0.0001035
Mean motion
15.27573373 rev/d
Perigee alt
482.4 km
Apogee alt
483.8 km
Semi-major
6,861.2 km
B*
5.2856e-5
RAAN
46.8247°
Arg perigee
288.4630°
Mean anomaly
71.6110°
Rev number
15,235

§ Raw data

STARLINK-302871 57709U 23129M   26144.98799551  .00001192  00000+0  52856-4 0  99972 57709  43.0077  46.8247 0001035 288.4630  71.6110 15.27573373152357

JSON: /api/v1/satellites/57709 · /tle

For live sub-satellite position, see the globe view (requires WebGL).

§ Visibility from observer

Set your observer location to see the next 7 days of passes ≥ 10°. The values pass through the URL so the page stays shareable.

No JS? Fill the form by hand. The geolocation button needs JavaScript.